Regional Weather Roundup
Issued by NWS Albany, NY

Home | Current Version | Previous Version | Text Only | Print | Product List | Glossary On
Versions: 1 2 3 4 5 6 7 8 9 10 11 12 13 14 15 16 17 18 19 20 21 22 23 24 25 26 27 28
000
ASUS41 KALY 211810
RWRALY

NEW YORK STATE HOURLY WEATHER ROUNDUP
NATIONAL WEATHER SERVICE ALBANY NY
100 PM EST SAT JAN 21 2017

NOTE: "FAIR" INDICATES FEW OR NO CLOUDS BELOW 12,000 FEET WITH NO
SIGNIFICANT WEATHER AND/OR NO OBSTRUCTIONS TO VISIBILITY.

NYZ032-033-038>043-046>054-057>066-NYZ062>081-082-084-211900-
EAST


CITY           SKY/WX    TMP DP  RH WIND       PRES   REMARKS
ALBANY         PTSUNNY   45  38  76 S6        29.80S
GLENS FALLS    CLOUDY    42  37  82 S8        29.76F
POUGHKEEPSIE   CLOUDY    47  43  86 SE6       29.79F
NEWBURGH       MOSUNNY   48  46  93 SW8       29.82F
MONTGOMERY     SUNNY     52  45  77 S9        29.77F
WHITE PLAINS   PTSUNNY   46  43  89 NW3       29.80F FOG
ISLIP          CLOUDY    48  45  89 CALM      29.82F FOG
NEW YORK CITY  PTSUNNY   48  42  80 NW7       29.83F
CENTRAL PARK   CLOUDY    44  42  93 CALM      29.85F
$$

NYZ005>009-017-018-044>046-055-056-211900-
CENTRAL


CITY           SKY/WX    TMP DP  RH WIND       PRES   REMARKS
FULTON         CLOUDY    48  44  86 CALM      29.76F
SYRACUSE       PTSUNNY   50  43  77 N3        29.76F
ROME           CLOUDY    45  41  86 CALM      29.78F
ELMIRA         SUNNY     55  46  71 S3        29.75F
BINGHAMTON     CLOUDY    45  44  97 SW7       29.76F
MONTICELLO     CLOUDY    41  41 100 NW7       29.80F
$$

NYZ026>034-041>043-087-211900-
NORTH


CITY           SKY/WX    TMP DP  RH WIND       PRES   REMARKS
WATERTOWN      FOG       41  41 100 W8        29.76F VSB 3/4
FORT DRUM      NOT AVBL
OGDENSBURG     FOG       40  40  98 SW3       29.75F VSB 1/2
MASSENA        CLOUDY    39  38  96 W7        29.76F WCI  34
SARANAC LAKE   CLOUDY    39  37  92 SW9       29.70S FOG     WCI  33
PLATTSBURGH    CLOUDY    40  37  89 CALM      29.72F
$$

NYZ001>004-010>016-019>021-085-211900-
WEST


CITY           SKY/WX    TMP DP  RH WIND       PRES   REMARKS
NIAGARA FALLS  CLOUDY    49  46  90 NE3       29.72F FOG
BUFFALO        CLOUDY    55  48  77 CALM      29.71F
DUNKIRK        MOSUNNY   60  49  66 S15       29.69F
JAMESTOWN        N/A     52  48  87 S9        29.72F
WELLSVILLE     SUNNY     57  48  72 VRB3      29.76F
ROCHESTER      CLOUDY    49  46  90 E5        29.74F
PENN YAN       SUNNY     59  46  62 SW7       29.74F
$$

             KEY
       WCI = WIND CHILL INDEX
       VSB = VISIBILITY
       HX  = HEAT INDEX
$$




USA.gov is the U.S. government's official web portal to all federal, state and local government web resources and services.